Time,TemperatureF,DewpointF,PressureIn,WindDirection,WindDirectionDegrees,WindSpeedMPH,WindSpeedGustMPH,Humidity,HourlyPrecipIn,Conditions,Clouds,dailyrainin,SoftwareType,DateUTC
2013-10-12 00:23:00,60.0,53.0,-100.00,SE,135,0.0,0.0,78,-99.99,,,-99.99,,2013-10-12 05:23:00,
2013-10-12 00:34:00,60.0,53.0,-100.00,SE,135,0.0,0.0,78,-99.99,,,-99.99,,2013-10-12 05:34:00,
2013-10-12 00:43:00,60.0,53.0,-100.00,SE,135,0.0,0.0,78,-99.99,,,-99.99,,2013-10-12 05:43:00,
2013-10-12 00:52:00,60.0,53.0,-100.00,SE,135,0.0,0.0,78,-99.99,,,-99.99,,2013-10-12 05:52:00,
2013-10-12 01:22:00,59.0,52.0,-100.00,ESE,120,0.0,0.0,78,-99.99,,,-99.99,,2013-10-12 06:22:00,
2013-10-12 01:32:00,59.0,52.0,-100.00,ESE,120,0.0,0.0,78,-99.99,,,-99.99,,2013-10-12 06:32:00,
2013-10-12 01:42:00,59.0,52.0,-100.00,ESE,120,0.0,0.0,78,-99.99,,,-99.99,,2013-10-12 06:42:00,
2013-10-12 01:52:00,59.0,52.0,-100.00,ESE,120,0.0,0.0,78,-99.99,,,-99.99,,2013-10-12 06:52:00,
2013-10-12 02:22:00,59.0,52.0,-100.00,ESE,115,0.0,0.0,78,-99.99,,,-99.99,,2013-10-12 07:22:00,
2013-10-12 02:32:00,59.0,52.0,-100.00,ESE,115,0.0,0.0,78,-99.99,,,-99.99,,2013-10-12 07:32:00,
2013-10-12 02:42:00,59.0,52.0,-100.00,ESE,115,0.0,0.0,78,-99.99,,,-99.99,,2013-10-12 07:42:00,
2013-10-12 02:52:00,59.0,52.0,-100.00,ESE,115,0.0,0.0,78,-99.99,,,-99.99,,2013-10-12 07:52:00,
2013-10-12 03:22:00,59.0,53.0,-100.00,SE,125,0.0,0.0,79,-99.99,,,-99.99,,2013-10-12 08:22:00,
2013-10-12 03:32:00,59.0,53.0,-100.00,SE,125,0.0,0.0,79,-99.99,,,-99.99,,2013-10-12 08:32:00,
2013-10-12 03:42:00,59.0,53.0,-100.00,SE,125,0.0,0.0,79,-99.99,,,-99.99,,2013-10-12 08:42:00,
2013-10-12 03:52:00,59.0,53.0,-100.00,SE,125,0.0,0.0,79,-99.99,,,-99.99,,2013-10-12 08:52:00,
2013-10-12 03:53:00,59.0,54.0,-100.00,SE,135,0.0,0.0,83,-99.99,,,-99.99,,2013-10-12 08:53:00,
2013-10-12 04:22:00,59.0,54.0,-100.00,SE,135,0.0,0.0,83,-99.99,,,-99.99,,2013-10-12 09:22:00,
2013-10-12 04:33:00,59.0,54.0,-100.00,SE,135,0.0,0.0,83,-99.99,,,-99.99,,2013-10-12 09:33:00,
2013-10-12 04:43:00,59.0,54.0,-100.00,SE,135,0.0,0.0,83,-99.99,,,-99.99,,2013-10-12 09:43:00,
2013-10-12 05:23:00,58.0,53.0,-100.00,SE,145,0.0,0.0,84,-99.99,,,-99.99,,2013-10-12 10:23:00,
2013-10-12 05:32:00,58.0,53.0,-100.00,SE,145,0.0,0.0,84,-99.99,,,-99.99,,2013-10-12 10:32:00,
2013-10-12 05:42:00,58.0,53.0,-100.00,SE,145,0.0,0.0,84,-99.99,,,-99.99,,2013-10-12 10:42:00,
2013-10-12 05:52:00,58.0,53.0,-100.00,SE,145,0.0,0.0,84,-99.99,,,-99.99,,2013-10-12 10:52:00,
2013-10-12 06:22:00,58.0,54.0,-100.00,SSE,150,0.0,0.0,86,-99.99,,,-99.99,,2013-10-12 11:22:00,
2013-10-12 06:33:00,58.0,54.0,-100.00,SSE,150,0.0,0.0,86,-99.99,,,-99.99,,2013-10-12 11:33:00,
2013-10-12 06:42:00,58.0,54.0,-100.00,SSE,150,0.0,0.0,86,-99.99,,,-99.99,,2013-10-12 11:42:00,
2013-10-12 06:52:00,58.0,54.0,-100.00,SSE,150,0.0,0.0,86,-99.99,,,-99.99,,2013-10-12 11:52:00,
2013-10-12 07:22:00,58.0,55.0,-100.00,SSE,160,0.0,0.0,88,-99.99,,,-99.99,,2013-10-12 12:22:00,
2013-10-12 07:32:00,58.0,55.0,-100.00,SSE,160,0.0,0.0,88,-99.99,,,-99.99,,2013-10-12 12:32:00,
2013-10-12 07:42:00,58.0,55.0,-100.00,SSE,160,0.0,0.0,88,-99.99,,,-99.99,,2013-10-12 12:42:00,
2013-10-12 07:52:00,58.0,55.0,-100.00,SSE,160,0.0,0.0,88,-99.99,,,-99.99,,2013-10-12 12:52:00,
2013-10-12 08:22:00,59.0,56.0,-100.00,SSW,200,0.0,0.0,89,-99.99,,,-99.99,,2013-10-12 13:22:00,
2013-10-12 08:32:00,59.0,56.0,-100.00,SSW,200,0.0,0.0,89,-99.99,,,-99.99,,2013-10-12 13:32:00,
2013-10-12 08:42:00,59.0,56.0,-100.00,SSW,200,0.0,0.0,89,-99.99,,,-99.99,,2013-10-12 13:42:00,
2013-10-12 08:52:00,59.0,56.0,-100.00,SSW,200,0.0,0.0,89,-99.99,,,-99.99,,2013-10-12 13:52:00,
2013-10-12 09:21:00,56.0,51.0,-100.00,WSW,255,0.0,0.0,83,-99.99,,,-99.99,,2013-10-12 14:21:00,
2013-10-12 09:32:00,56.0,51.0,-100.00,WSW,255,0.0,0.0,83,-99.99,,,-99.99,,2013-10-12 14:32:00,
2013-10-12 09:42:00,56.0,51.0,-100.00,WSW,255,0.0,0.0,83,-99.99,,,-99.99,,2013-10-12 14:42:00,
2013-10-12 09:52:00,56.0,51.0,-100.00,WSW,255,0.0,0.0,83,-99.99,,,-99.99,,2013-10-12 14:52:00,
2013-10-12 09:53:00,57.0,47.0,-100.00,WSW,255,0.0,0.0,69,-99.99,,,-99.99,,2013-10-12 14:53:00,
2013-10-12 10:22:00,57.0,47.0,-100.00,WSW,255,0.0,0.0,69,-99.99,,,-99.99,,2013-10-12 15:22:00,
2013-10-12 10:33:00,57.0,47.0,-100.00,WSW,255,0.0,0.0,69,-99.99,,,-99.99,,2013-10-12 15:33:00,
2013-10-12 10:43:00,57.0,47.0,-100.00,WSW,255,0.0,0.0,69,-99.99,,,-99.99,,2013-10-12 15:43:00,
2013-10-12 10:53:00,58.0,45.0,-100.00,West,260,0.0,0.0,62,-99.99,,,-99.99,,2013-10-12 15:53:00,
2013-10-12 11:23:00,58.0,45.0,-100.00,West,260,0.0,0.0,62,-99.99,,,-99.99,,2013-10-12 16:23:00,
2013-10-12 11:33:00,58.0,45.0,-100.00,West,260,0.0,0.0,62,-99.99,,,-99.99,,2013-10-12 16:33:00,
2013-10-12 11:43:00,58.0,45.0,-100.00,West,260,0.0,0.0,62,-99.99,,,-99.99,,2013-10-12 16:43:00,
2013-10-12 11:53:00,58.0,42.0,-100.00,WSW,240,0.0,1.0,55,-99.99,,,-99.99,,2013-10-12 16:53:00,
2013-10-12 12:23:00,58.0,42.0,-100.00,WSW,240,0.0,1.0,55,-99.99,,,-99.99,,2013-10-12 17:23:00,
2013-10-12 12:34:00,58.0,42.0,-100.00,WSW,240,0.0,1.0,55,-99.99,,,-99.99,,2013-10-12 17:34:00,
2013-10-12 12:42:00,58.0,42.0,-100.00,WSW,240,0.0,1.0,55,-99.99,,,-99.99,,2013-10-12 17:42:00,
2013-10-12 13:22:00,61.0,44.0,-100.00,WSW,245,0.0,1.0,54,-99.99,,,-99.99,,2013-10-12 18:22:00,
2013-10-12 13:32:00,61.0,44.0,-100.00,WSW,245,0.0,1.0,54,-99.99,,,-99.99,,2013-10-12 18:32:00,
2013-10-12 13:42:00,61.0,44.0,-100.00,WSW,245,0.0,1.0,54,-99.99,,,-99.99,,2013-10-12 18:42:00,
2013-10-12 13:52:00,61.0,44.0,-100.00,WSW,245,0.0,1.0,54,-99.99,,,-99.99,,2013-10-12 18:52:00,
2013-10-12 14:22:00,60.0,41.0,-100.00,SW,235,0.0,1.0,49,-99.99,,,-99.99,,2013-10-12 19:22:00,
2013-10-12 14:32:00,60.0,41.0,-100.00,SW,235,0.0,1.0,49,-99.99,,,-99.99,,2013-10-12 19:32:00,
2013-10-12 14:42:00,60.0,41.0,-100.00,SW,235,0.0,1.0,49,-99.99,,,-99.99,,2013-10-12 19:42:00,
2013-10-12 14:52:00,60.0,41.0,-100.00,SW,235,0.0,1.0,49,-99.99,,,-99.99,,2013-10-12 19:52:00,
2013-10-12 15:22:00,61.0,40.0,-100.00,West,270,0.0,1.0,46,-99.99,,,-99.99,,2013-10-12 20:22:00,
2013-10-12 15:32:00,61.0,40.0,-100.00,West,270,0.0,1.0,46,-99.99,,,-99.99,,2013-10-12 20:32:00,
2013-10-12 15:42:00,61.0,40.0,-100.00,West,270,0.0,1.0,46,-99.99,,,-99.99,,2013-10-12 20:42:00,
2013-10-12 15:52:00,61.0,40.0,-100.00,West,270,0.0,1.0,46,-99.99,,,-99.99,,2013-10-12 20:52:00,
2013-10-12 15:53:00,58.0,37.0,-100.00,West,270,0.0,1.0,47,-99.99,,,-99.99,,2013-10-12 20:53:00,
2013-10-12 16:22:00,58.0,37.0,-100.00,West,270,0.0,1.0,47,-99.99,,,-99.99,,2013-10-12 21:22:00,
2013-10-12 16:35:00,58.0,37.0,-100.00,West,270,0.0,1.0,47,-99.99,,,-99.99,,2013-10-12 21:35:00,
2013-10-12 16:43:00,58.0,37.0,-100.00,West,270,0.0,1.0,47,-99.99,,,-99.99,,2013-10-12 21:43:00,
2013-10-12 16:53:00,56.0,37.0,-100.00,WSW,250,0.0,1.0,49,-99.99,,,-99.99,,2013-10-12 21:53:00,
2013-10-12 17:24:00,56.0,37.0,-100.00,WSW,250,0.0,1.0,49,-99.99,,,-99.99,,2013-10-12 22:24:00,
2013-10-12 17:33:00,56.0,37.0,-100.00,WSW,250,0.0,1.0,49,-99.99,,,-99.99,,2013-10-12 22:33:00,
2013-10-12 17:43:00,56.0,37.0,-100.00,WSW,250,0.0,1.0,49,-99.99,,,-99.99,,2013-10-12 22:43:00,
2013-10-12 18:22:00,55.0,37.0,-100.00,WSW,250,0.0,1.0,50,-99.99,,,-99.99,,2013-10-12 23:22:00,
2013-10-12 18:33:00,55.0,37.0,-100.00,WSW,250,0.0,1.0,50,-99.99,,,-99.99,,2013-10-12 23:33:00,
2013-10-12 18:42:00,55.0,37.0,-100.00,WSW,250,0.0,1.0,50,-99.99,,,-99.99,,2013-10-12 23:42:00,
2013-10-12 18:52:00,55.0,37.0,-100.00,WSW,250,0.0,1.0,50,-99.99,,,-99.99,,2013-10-12 23:52:00,
2013-10-12 19:22:00,54.0,36.0,-100.00,West,275,0.0,1.0,52,-99.99,,,-99.99,,2013-10-13 00:22:00,
2013-10-12 19:32:00,54.0,36.0,-100.00,West,275,0.0,1.0,52,-99.99,,,-99.99,,2013-10-13 00:32:00,
2013-10-12 19:42:00,54.0,36.0,-100.00,West,275,0.0,1.0,52,-99.99,,,-99.99,,2013-10-13 00:42:00,
2013-10-12 19:52:00,54.0,36.0,-100.00,West,275,0.0,1.0,52,-99.99,,,-99.99,,2013-10-13 00:52:00,
2013-10-12 20:22:00,49.0,36.0,-100.00,West,275,0.0,1.0,61,-99.99,,,-99.99,,2013-10-13 01:22:00,
2013-10-12 20:32:00,49.0,36.0,-100.00,West,275,0.0,1.0,61,-99.99,,,-99.99,,2013-10-13 01:32:00,
2013-10-12 20:42:00,49.0,36.0,-100.00,West,275,0.0,1.0,61,-99.99,,,-99.99,,2013-10-13 01:42:00,
2013-10-12 20:52:00,49.0,36.0,-100.00,West,275,0.0,1.0,61,-99.99,,,-99.99,,2013-10-13 01:52:00,
2013-10-12 21:22:00,49.0,38.0,-100.00,West,260,0.0,0.0,66,-99.99,,,-99.99,,2013-10-13 02:22:00,
2013-10-12 21:32:00,49.0,38.0,-100.00,West,260,0.0,0.0,66,-99.99,,,-99.99,,2013-10-13 02:32:00,
2013-10-12 21:42:00,49.0,38.0,-100.00,West,260,0.0,0.0,66,-99.99,,,-99.99,,2013-10-13 02:42:00,
2013-10-12 21:52:00,49.0,38.0,-100.00,West,260,0.0,0.0,66,-99.99,,,-99.99,,2013-10-13 02:52:00,
2013-10-12 21:53:00,49.0,39.0,-100.00,West,275,0.0,1.0,70,-99.99,,,-99.99,,2013-10-13 02:53:00,
2013-10-12 22:22:00,49.0,39.0,-100.00,West,275,0.0,1.0,70,-99.99,,,-99.99,,2013-10-13 03:22:00,
2013-10-12 22:34:00,49.0,39.0,-100.00,West,275,0.0,1.0,70,-99.99,,,-99.99,,2013-10-13 03:34:00,
2013-10-12 22:45:00,49.0,39.0,-100.00,West,275,0.0,1.0,70,-99.99,,,-99.99,,2013-10-13 03:45:00,
2013-10-12 22:53:00,47.0,40.0,-100.00,West,280,0.0,1.0,76,-99.99,,,-99.99,,2013-10-13 03:53:00,
2013-10-12 23:23:00,47.0,40.0,-100.00,West,280,0.0,1.0,76,-99.99,,,-99.99,,2013-10-13 04:23:00,
2013-10-12 23:33:00,47.0,40.0,-100.00,West,280,0.0,1.0,76,-99.99,,,-99.99,,2013-10-13 04:33:00,
2013-10-12 23:43:00,47.0,40.0,-100.00,West,280,0.0,1.0,76,-99.99,,,-99.99,,2013-10-13 04:43:00,